| time (UTC) | temp F | wind direction | speed MPH | gust MPH | rain 1hr in | rain 24hr in | rain mn in | humidity % | barometer mb |
| 20260505000551 | 73 | 188 | 0.0 | 8.0 | 0.00 | 0.00 | 0.00 | 48 | 1002.9 |
| 20260505000100 | 74 | 121 | 0.0 | 8.0 | 0.00 | 0.00 | 0.00 | 47 | 1003.0 |
| 20260504235551 | 74 | 176 | 0.0 | 5.0 | 0.00 | 0.00 | 0.00 | 47 | 1003.0 |
| 20260504235052 | 74 | 9 | 0.0 | 5.0 | 0.00 | 0.00 | 0.00 | 46 | 1003.0 |
| 20260504234550 | 74 | 169 | 0.0 | 6.0 | 0.00 | 0.00 | 0.00 | 46 | 1003.0 |
| 20260504234052 | 74 | 188 | 1.0 | 6.0 | 0.00 | 0.00 | 0.00 | 48 | 1003.1 |
| 20260504233549 | 74 | 272 | 0.0 | 5.0 | 0.00 | 0.00 | 0.00 | 47 | 1003.2 |
| 20260504233052 | 74 | 257 | 1.0 | 4.0 | 0.00 | 0.00 | 0.00 | 46 | 1003.4 |
| 20260504232548 | 74 | 235 | 1.0 | 3.0 | 0.00 | 0.00 | 0.00 | 45 | 1003.3 |
| 20260504232052 | 74 | 113 | 0.0 | 5.0 | 0.00 | 0.00 | 0.00 | 46 | 1003.3 |
| 20260504231547 | 75 | 180 | 0.0 | 7.0 | 0.00 | 0.00 | 0.00 | 45 | 1003.7 |
| 20260504231046 | 75 | 233 | 0.0 | 9.0 | 0.00 | 0.00 | 0.00 | 46 | 1003.6 |
| 20260504230549 | 75 | 134 | 2.0 | 9.0 | 0.00 | 0.00 | 0.00 | 47 | 1003.8 |
| 20260504230044 | 75 | 278 | 1.0 | 7.0 | 0.00 | 0.00 | 0.00 | 46 | 1004.0 |
| 20260504225545 | 75 | 150 | 0.0 | 8.0 | 0.00 | 0.00 | 0.00 | 47 | 1004.2 |
| 20260504225048 | 75 | 169 | 0.0 | 11.0 | 0.00 | 0.00 | 0.00 | 47 | 1004.2 |
| 20260504224545 | 75 | 129 | 2.0 | 11.0 | 0.00 | 0.00 | 0.00 | 43 | 1004.2 |
| 20260504224045 | 75 | 186 | 1.0 | 6.0 | 0.00 | 0.00 | 0.00 | 45 | 1004.3 |
| 20260504223542 | 75 | 279 | 1.0 | 6.0 | 0.00 | 0.00 | 0.00 | 46 | 1004.3 |
| 20260504223041 | 75 | 298 | 0.0 | 3.0 | 0.00 | 0.00 | 0.00 | 45 | 1004.4 |
| 20260504222541 | 75 | 255 | 0.0 | 5.0 | 0.00 | 0.00 | 0.00 | 45 | 1004.4 |
| 20260504222041 | 75 | 246 | 1.0 | 11.0 | 0.00 | 0.00 | 0.00 | 44 | 1004.5 |
| 20260504221543 | 75 | 144 | 2.0 | 11.0 | 0.00 | 0.00 | 0.00 | 42 | 1004.6 |
| 20260504221040 | 76 | 194 | 0.0 | 6.0 | 0.00 | 0.00 | 0.00 | 44 | 1004.6 |
| 20260504220540 | 76 | 227 | 1.0 | 6.0 | 0.00 | 0.00 | 0.00 | 42 | 1004.6 |
| 20260504220048 | 76 | 292 | 1.0 | 6.0 | 0.00 | 0.00 | 0.00 | 43 | 1004.6 |
| 20260504215541 | 75 | 136 | 1.0 | 9.0 | 0.00 | 0.00 | 0.00 | 41 | 1004.6 |
| 20260504215040 | 75 | 266 | 1.0 | 9.0 | 0.00 | 0.00 | 0.00 | 41 | 1004.5 |
| 20260504214548 | 75 | 128 | 0.0 | 10.0 | 0.00 | 0.00 | 0.00 | 43 | 1004.6 |
| 20260504214038 | 75 | 159 | 0.0 | 10.0 | 0.00 | 0.00 | 0.00 | 41 | 1004.7 |
| 20260504213538 | 75 | 190 | 0.0 | 10.0 | 0.00 | 0.00 | 0.00 | 41 | 1004.6 |
| 20260504213047 | 75 | 309 | 1.0 | 12.0 | 0.00 | 0.00 | 0.00 | 39 | 1004.7 |
| 20260504212535 | 76 | 317 | 2.0 | 12.0 | 0.00 | 0.00 | 0.00 | 39 | 1004.8 |
| 20260504212036 | 76 | 197 | 2.0 | 11.0 | 0.00 | 0.00 | 0.00 | 41 | 1005.0 |
| 20260504211537 | 76 | 261 | 0.0 | 6.0 | 0.00 | 0.00 | 0.00 | 43 | 1004.9 |
| 20260504211035 | 76 | 240 | 1.0 | 7.0 | 0.00 | 0.00 | 0.00 | 41 | 1005.0 |
| 20260504210535 | 76 | 182 | 1.0 | 10.0 | 0.00 | 0.00 | 0.00 | 42 | 1004.8 |
| 20260504210035 | 76 | 285 | 3.0 | 11.0 | 0.00 | 0.00 | 0.00 | 40 | 1004.9 |
| 20260504205535 | 76 | 5 | 2.0 | 12.0 | 0.00 | 0.00 | 0.00 | 43 | 1004.9 |
| 20260504205034 | 77 | 258 | 2.0 | 9.0 | 0.00 | 0.00 | 0.00 | 40 | 1004.9 |
| 20260504204533 | 77 | 256 | 2.0 | 9.0 | 0.00 | 0.00 | 0.00 | 47 | 1004.9 |
| 20260504204033 | 77 | 157 | 0.0 | 8.0 | 0.00 | 0.00 | 0.00 | 45 | 1004.9 |
| 20260504203532 | 77 | 229 | 1.0 | 8.0 | 0.00 | 0.00 | 0.00 | 45 | 1005.0 |
| 20260504203032 | 77 | 213 | 0.0 | 3.0 | 0.00 | 0.00 | 0.00 | 48 | 1005.1 |
| 20260504202530 | 76 | 331 | 0.0 | 2.0 | 0.00 | 0.00 | 0.00 | 50 | 1005.2 |
| 20260504202029 | 75 | 137 | 0.0 | 2.0 | 0.00 | 0.00 | 0.00 | 52 | 1005.4 |
| 20260504201528 | 75 | 263 | 0.0 | 2.0 | 0.00 | 0.00 | 0.00 | 52 | 1005.6 |
| 20260504201027 | 75 | 140 | 0.0 | 2.0 | 0.00 | 0.00 | 0.00 | 50 | 1005.7 |
| 20260504200526 | 75 | 130 | 0.0 | 2.0 | 0.00 | 0.00 | 0.00 | 49 | 1005.7 |
| 20260504200037 | 75 | 280 | 0.0 | 2.0 | 0.00 | 0.00 | 0.00 | 51 | 1005.9 |
| 20260504195525 | 75 | 275 | 0.0 | 3.0 | 0.00 | 0.00 | 0.00 | 48 | 1005.8 |
| 20260504195025 | 75 | 238 | 0.0 | 3.0 | 0.00 | 0.00 | 0.00 | 49 | 1005.8 |
| 20260504194525 | 76 | 184 | 0.0 | 3.0 | 0.00 | 0.00 | 0.00 | 47 | 1006.1 |
| 20260504194027 | 75 | 293 | 0.0 | 3.0 | 0.00 | 0.00 | 0.00 | 48 | 1006.0 |
| 20260504193524 | 75 | 275 | 0.0 | 3.0 | 0.00 | 0.00 | 0.00 | 47 | 1006.1 |
| 20260504193022 | 75 | 131 | 0.0 | 2.0 | 0.00 | 0.00 | 0.00 | 48 | 1006.2 |
| 20260504192520 | 75 | 150 | 0.0 | 4.0 | 0.00 | 0.00 | 0.00 | 51 | 1006.4 |
| 20260504192019 | 74 | 288 | 1.0 | 4.0 | 0.00 | 0.00 | 0.00 | 51 | 1006.4 |
| 20260504191532 | 74 | 264 | 0.0 | 2.0 | 0.00 | 0.00 | 0.00 | 55 | 1006.4 |
| 20260504191018 | 73 | 285 | 0.0 | 2.0 | 0.00 | 0.00 | 0.00 | 55 | 1006.5 |
| 20260504190516 | 72 | 299 | 0.0 | 2.0 | 0.00 | 0.00 | 0.00 | 56 | 1006.6 |
| 20260504190014 | 72 | 215 | 0.0 | 2.0 | 0.00 | 0.00 | 0.00 | 54 | 1006.7 |
| 20260504185513 | 71 | 267 | 0.0 | 2.0 | 0.00 | 0.00 | 0.00 | 58 | 1006.9 |
| 20260504185012 | 70 | 186 | 0.0 | 2.0 | 0.00 | 0.00 | 0.00 | 59 | 1006.9 |
| 20260504184514 | 70 | 208 | 0.0 | 4.0 | 0.00 | 0.00 | 0.00 | 57 | 1007.1 |
| 20260504184011 | 70 | 241 | 0.0 | 3.0 | 0.00 | 0.00 | 0.00 | 60 | 1007.2 |
| 20260504183511 | 69 | 60 | 0.0 | 3.0 | 0.00 | 0.00 | 0.00 | 62 | 1007.4 |
| 20260504183022 | 69 | 294 | 0.0 | 5.0 | 0.00 | 0.00 | 0.00 | 62 | 1007.3 |
| 20260504182509 | 69 | 228 | 0.0 | 5.0 | 0.00 | 0.00 | 0.00 | 60 | 1007.5 |
| 20260504182009 | 69 | 339 | 0.0 | 4.0 | 0.00 | 0.00 | 0.00 | 63 | 1007.5 |
| 20260504181509 | 69 | 290 | 0.0 | 5.0 | 0.00 | 0.00 | 0.00 | 61 | 1007.4 |
| 20260504181008 | 69 | 182 | 0.0 | 5.0 | 0.00 | 0.00 | 0.00 | 61 | 1007.4 |
| 20260504180511 | 68 | 267 | 0.0 | 2.0 | 0.00 | 0.00 | 0.00 | 62 | 1007.5 |
| 20260504180007 | 68 | 183 | 0.0 | 2.0 | 0.00 | 0.00 | 0.00 | 63 | 1007.5 |
| 20260504175507 | 67 | 171 | 0.0 | 2.0 | 0.00 | 0.00 | 0.00 | 63 | 1007.5 |
| 20260504175007 | 67 | 272 | 0.0 | 2.0 | 0.00 | 0.00 | 0.00 | 63 | 1007.5 |
| 20260504174507 | 67 | 269 | 0.0 | 0.0 | 0.00 | 0.00 | 0.00 | 64 | 1007.5 |
| 20260504174007 | 67 | 187 | 0.0 | 0.0 | 0.00 | 0.00 | 0.00 | 65 | 1007.6 |
| 20260504173508 | 67 | 186 | 0.0 | 2.0 | 0.00 | 0.00 | 0.00 | 66 | 1007.6 |
| 20260504173006 | 67 | 151 | 0.0 | 2.0 | 0.00 | 0.00 | 0.00 | 64 | 1007.5 |
| 20260504172509 | 67 | 172 | 0.0 | 2.0 | 0.00 | 0.00 | 0.00 | 62 | 1007.2 |
| 20260504172007 | 68 | 219 | 0.0 | 3.0 | 0.00 | 0.00 | 0.00 | 62 | 1007.1 |
| 20260504171506 | 68 | 132 | 0.0 | 7.0 | 0.00 | 0.00 | 0.00 | 60 | 1007.1 |
| 20260504171008 | 68 | 146 | 1.0 | 7.0 | 0.00 | 0.00 | 0.00 | 61 | 1007.3 |
| 20260504170505 | 68 | 262 | 0.0 | 6.0 | 0.00 | 0.00 | 0.00 | 60 | 1007.3 |
| 20260504151050 | 66 | 106 | 0.0 | 2.0 | 0.00 | 0.00 | 0.00 | 68 | 1007.0 |
| 20260504150549 | 65 | 234 | 0.0 | 1.0 | 0.00 | 0.00 | 0.00 | 69 | 1007.3 |
| 20260504141040 | 62 | 148 | 0.0 | 2.0 | 0.00 | 0.00 | 0.00 | 71 | 1007.7 |
| 20260504140539 | 62 | 288 | 0.0 | 2.0 | 0.00 | 0.00 | 0.00 | 72 | 1007.8 |
| 20260504130528 | 60 | 209 | 0.0 | 2.0 | 0.00 | 0.00 | 0.00 | 73 | 1007.8 |
| 20260504110502 | 55 | 168 | 0.0 | 2.0 | 0.00 | 0.00 | 0.00 | 73 | 1007.7 |
| 20260504100557 | 54 | 169 | 0.0 | 2.0 | 0.00 | 0.00 | 0.00 | 71 | 1008.1 |
| 20260504081550 | 52 | 223 | 0.0 | 2.0 | 0.00 | 0.00 | 0.00 | 71 | 1009.1 |
| 20260504081051 | 52 | 223 | 0.0 | 2.0 | 0.00 | 0.00 | 0.00 | 70 | 1009.1 |
| 20260504080549 | 52 | 232 | 0.0 | 0.0 | 0.00 | 0.00 | 0.00 | 70 | 1009.0 |
| 20260504050528 | 54 | 162 | 0.0 | 0.0 | 0.00 | 0.00 | 0.00 | 63 | 1010.8 |
| 20260504045527 | 55 | 156 | 0.0 | 2.0 | 0.00 | 0.00 | 0.00 | 62 | 1010.7 |
| 20260504045026 | 55 | 186 | 0.0 | 2.0 | 0.00 | 0.00 | 0.00 | 62 | 1010.8 |
| 20260504044535 | 55 | 161 | 0.0 | 2.0 | 0.00 | 0.00 | 0.00 | 61 | 1010.8 |
| 20260504044024 | 55 | 119 | 0.0 | 1.0 | 0.00 | 0.00 | 0.00 | 61 | 1010.8 |
| 20260504043524 | 55 | 218 | 0.0 | 2.0 | 0.00 | 0.00 | 0.00 | 61 | 1010.7 |
| 20260504043026 | 55 | 228 | 0.0 | 2.0 | 0.00 | 0.00 | 0.00 | 60 | 1010.7 |
| 20260504042522 | 55 | 132 | 0.0 | 2.0 | 0.00 | 0.00 | 0.00 | 60 | 1010.8 |
| 20260504042021 | 55 | 207 | 0.0 | 2.0 | 0.00 | 0.00 | 0.00 | 60 | 1010.8 |
| 20260504041523 | 56 | 186 | 0.0 | 2.0 | 0.00 | 0.00 | 0.00 | 60 | 1010.9 |
| 20260504041020 | 56 | 202 | 0.0 | 2.0 | 0.00 | 0.00 | 0.00 | 59 | 1011.0 |
| 20260504040520 | 56 | 301 | 0.0 | 2.0 | 0.00 | 0.00 | 0.00 | 59 | 1011.0 |
| 20260504040019 | 56 | 226 | 0.0 | 2.0 | 0.00 | 0.00 | 0.00 | 58 | 1011.1 |
| 20260504035522 | 56 | 265 | 0.0 | 2.0 | 0.00 | 0.00 | 0.00 | 59 | 1011.2 |
| 20260504035020 | 56 | 200 | 0.0 | 2.0 | 0.00 | 0.00 | 0.00 | 57 | 1011.2 |
| 20260504034521 | 57 | 121 | 0.0 | 2.0 | 0.00 | 0.00 | 0.00 | 57 | 1011.2 |
| 20260504034018 | 57 | 181 | 0.0 | 2.0 | 0.00 | 0.00 | 0.00 | 57 | 1011.4 |
| 20260504033518 | 57 | 171 | 0.0 | 2.0 | 0.00 | 0.00 | 0.00 | 57 | 1011.4 |
| 20260504033018 | 57 | 211 | 0.0 | 2.0 | 0.00 | 0.00 | 0.00 | 56 | 1011.4 |
| 20260504032517 | 57 | 183 | 0.0 | 2.0 | 0.00 | 0.00 | 0.00 | 56 | 1011.5 |
| 20260504032018 | 57 | 129 | 0.0 | 2.0 | 0.00 | 0.00 | 0.00 | 56 | 1011.6 |
| 20260504031518 | 58 | 51 | 0.0 | 2.0 | 0.00 | 0.00 | 0.00 | 57 | 1011.7 |
| 20260504031017 | 58 | 186 | 0.0 | 2.0 | 0.00 | 0.00 | 0.00 | 56 | 1011.6 |
| 20260504030517 | 58 | 186 | 0.0 | 2.0 | 0.00 | 0.00 | 0.00 | 56 | 1011.6 |
| 20260504030035 | 58 | 92 | 0.0 | 3.0 | 0.00 | 0.00 | 0.00 | 56 | 1011.7 |
| 20260504025517 | 58 | 171 | 0.0 | 3.0 | 0.00 | 0.00 | 0.00 | 55 | 1011.7 |
| 20260504025020 | 58 | 200 | 0.0 | 2.0 | 0.00 | 0.00 | 0.00 | 55 | 1011.7 |
| 20260504024517 | 58 | 113 | 0.0 | 2.0 | 0.00 | 0.00 | 0.00 | 55 | 1011.8 |
| 20260504024017 | 58 | 180 | 0.0 | 2.0 | 0.00 | 0.00 | 0.00 | 55 | 1011.8 |
| 20260504023518 | 58 | 125 | 0.0 | 2.0 | 0.00 | 0.00 | 0.00 | 55 | 1011.7 |
| 20260504023017 | 58 | 159 | 0.0 | 2.0 | 0.00 | 0.00 | 0.00 | 55 | 1011.8 |
| 20260504022516 | 58 | 165 | 0.0 | 2.0 | 0.00 | 0.00 | 0.00 | 54 | 1011.7 |
| 20260504022015 | 58 | 157 | 0.0 | 2.0 | 0.00 | 0.00 | 0.00 | 54 | 1011.8 |
| 20260504021516 | 58 | 238 | 0.0 | 2.0 | 0.00 | 0.00 | 0.00 | 54 | 1011.7 |
| 20260504021015 | 58 | 126 | 0.0 | 2.0 | 0.00 | 0.00 | 0.00 | 54 | 1011.6 |
| 20260504020515 | 58 | 130 | 0.0 | 2.0 | 0.00 | 0.00 | 0.00 | 53 | 1011.8 |
| 20260504020015 | 59 | 111 | 0.0 | 2.0 | 0.00 | 0.00 | 0.00 | 54 | 1011.7 |
| 20260504015515 | 59 | 136 | 0.0 | 2.0 | 0.00 | 0.00 | 0.00 | 52 | 1011.9 |
| 20260504015019 | 59 | 130 | 0.0 | 2.0 | 0.00 | 0.00 | 0.00 | 52 | 1011.8 |
| 20260504014531 | 59 | 202 | 0.0 | 2.0 | 0.00 | 0.00 | 0.00 | 54 | 1011.8 |
| 20260504014014 | 60 | 194 | 0.0 | 2.0 | 0.00 | 0.00 | 0.00 | 51 | 1011.7 |
| 20260504013514 | 59 | 158 | 0.0 | 2.0 | 0.00 | 0.00 | 0.00 | 51 | 1011.6 |
| 20260504013014 | 60 | 207 | 0.0 | 3.0 | 0.00 | 0.00 | 0.00 | 51 | 1011.5 |
| 20260504012516 | 60 | 158 | 0.0 | 4.0 | 0.00 | 0.00 | 0.00 | 51 | 1011.4 |
| 20260504012014 | 60 | 211 | 0.0 | 3.0 | 0.00 | 0.00 | 0.00 | 51 | 1011.3 |
| 20260504011514 | 59 | 128 | 0.0 | 2.0 | 0.00 | 0.00 | 0.00 | 52 | 1011.3 |
| 20260504011017 | 59 | 329 | 0.0 | 2.0 | 0.00 | 0.00 | 0.00 | 55 | 1011.2 |
| 20260504010512 | 59 | 281 | 0.0 | 7.0 | 0.00 | 0.00 | 0.00 | 54 | 1011.1 |
| 20260504010015 | 59 | 167 | 0.0 | 7.0 | 0.00 | 0.00 | 0.00 | 52 | 1011.0 |
| 20260504005513 | 59 | 199 | 0.0 | 4.0 | 0.00 | 0.00 | 0.00 | 52 | 1010.9 |
| 20260504005012 | 60 | 187 | 0.0 | 3.0 | 0.00 | 0.00 | 0.00 | 51 | 1010.8 |
| 20260504004512 | 60 | 135 | 0.0 | 3.0 | 0.00 | 0.00 | 0.00 | 51 | 1011.6 |
| 20260504004010 | 60 | 133 | 0.0 | 3.0 | 0.00 | 0.00 | 0.00 | 51 | 1011.7 |
| 20260504003512 | 60 | 309 | 0.0 | 2.0 | 0.00 | 0.00 | 0.00 | 51 | 1011.9 |
| 20260504003024 | 60 | 182 | 0.0 | 3.0 | 0.00 | 0.00 | 0.00 | 50 | 1011.6 |
| 20260504002510 | 60 | 178 | 0.0 | 3.0 | 0.00 | 0.00 | 0.00 | 50 | 1011.5 |
| 20260504002010 | 60 | 100 | 0.0 | 6.0 | 0.00 | 0.00 | 0.00 | 52 | 1011.3 |
| 20260504001510 | 60 | 172 | 1.0 | 6.0 | 0.00 | 0.00 | 0.00 | 50 | 1011.4 |
| 20260504001009 | 60 | 53 | 0.0 | 3.0 | 0.00 | 0.00 | 0.00 | 50 | 1011.3 |